EW5859 Weather Reports


time (UTC)temp
C
wind
direction
speed
KPH
gust
KPH
rain 1hr
cm
rain 24hr
cm
rain mn
cm
humidity
%
barometer
mb
20260510204558 18 360 12.9 20.9 0.00 0.00 0.00 39 1020.8
20260510203109 17 360 3.2 17.7 0.00 0.00 0.00 43 1020.7
20260510201547 17 360 9.7 16.1 0.00 0.00 0.00 39 1020.8
20260510200002 17 360 6.4 19.3 0.00 0.00 0.00 40 1020.9
20260510194528 17 360 8.0 14.5 0.00 0.00 0.00 43 1021.1
20260510193049 17 360 3.2 12.9 0.00 0.00 0.00 45 1020.9
20260510191509 17 360 4.8 9.7 0.00 0.00 0.00 44 1021.1
20260510190045 17 360 1.6 12.9 0.00 0.00 0.00 42 1021.1
20260510184531 17 360 11.3 19.3 0.00 0.00 0.00 42 1020.9
20260510183016 17 360 3.2 9.7 0.00 0.00 0.00 47 1021.1
20260510181544 17 360 4.8 9.7 0.00 0.00 0.00 45 1021.1
20260510180024 17 360 3.2 12.9 0.00 0.00 0.00 45 1021.2
20260510174655 17 360 3.2 14.5 0.00 0.00 0.00 43 1021.1
20260510173054 17 360 1.6 8.0 0.00 0.00 0.00 48 1020.9
20260510171603 16 360 8.0 24.1 0.00 0.00 0.00 43 1021.1
20260510170053 17 360 11.3 19.3 0.00 0.00 0.00 42 1021.2
20260510164514 17 360 3.2 12.9 0.00 0.00 0.00 44 1021.0
20260510163013 17 360 6.4 17.7 0.00 0.00 0.00 42 1020.9
20260510161555 16 360 8.0 19.3 0.00 0.00 0.00 43 1020.7
20260510160017 16 360 6.4 20.9 0.00 0.00 0.00 42 1020.6
20260510154549 16 360 4.8 17.7 0.00 0.00 0.00 45 1020.5
20260510153041 15 360 6.4 20.9 0.00 0.00 0.00 47 1020.3
20260510151528 15 360 9.7 17.7 0.00 0.00 0.00 46 1020.3
20260510150049 15 360 4.8 12.9 0.00 0.00 0.00 47 1020.1
20260510144512 14 360 3.2 11.3 0.00 0.00 0.00 47 1020.4
20260510143002 14 360 3.2 9.7 0.00 0.00 0.00 48 1020.4
20260510141555 13 360 1.6 16.1 0.00 0.00 0.00 50 1020.4
20260510140029 13 360 3.2 16.1 0.00 0.00 0.00 51 1020.3
20260510134550 13 360 6.4 19.3 0.00 0.00 0.00 49 1020.1
20260510133043 13 360 11.3 20.9 0.00 0.00 0.00 50 1020.0
20260510131546 13 360 8.0 17.7 0.00 0.00 0.00 51 1019.6
20260510130126 13 360 4.8 14.5 0.00 0.00 0.00 53 1019.2
20260510124506 13 360 6.4 17.7 0.00 0.00 0.00 51 1019.1
20260510123051 13 16 4.8 17.7 0.00 0.00 0.00 53 1018.4
20260510121554 13 35 6.4 17.7 0.00 0.00 0.00 53 1018.3
20260510120025 13 360 4.8 16.1 0.00 0.00 0.00 53 1017.9
20260510114518 13 360 4.8 12.9 0.00 0.00 0.00 52 1017.5
20260510113043 13 360 4.8 14.5 0.00 0.00 0.00 53 1017.2
20260510111542 13 360 3.2 16.1 0.00 0.00 0.00 53 1017.3
20260510110001 13 360 1.6 9.7 0.00 0.00 0.00 53 1016.7
20260510104601 13 360 6.4 16.1 0.00 0.00 0.00 54 1016.9
20260510103038 13 360 3.2 12.9 0.00 0.00 0.00 55 1016.4
20260510101529 13 360 4.8 17.7 0.00 0.00 0.00 54 1016.3
20260510100042 14 28 4.8 20.9 0.00 0.00 0.00 55 1015.9
20260510094549 14 360 8.0 19.3 0.00 0.00 0.00 59 1015.8
20260510093110 15 360 6.4 17.7 0.00 0.00 0.00 64 1015.7
20260510091523 15 360 8.0 14.5 0.00 0.00 0.00 68 1015.4
20260510090024 15 360 3.2 8.0 0.00 0.00 0.00 66 1015.3
20260510084549 15 17 1.6 8.0 0.00 0.00 0.00 65 1015.1
20260510083013 16 351 6.4 12.9 0.00 0.00 0.00 65 1014.8
20260510081504 16 360 3.2 6.4 0.00 0.00 0.00 65 1014.8
20260510080013 16 360 3.2 9.7 0.00 0.00 0.00 64 1014.6
20260510074529 16 360 1.6 6.4 0.00 0.00 0.00 64 1014.2
20260510073114 16 360 3.2 8.0 0.00 0.00 0.00 64 1014.3
20260510071546 16 360 3.2 8.0 0.00 0.00 0.00 63 1014.0
20260510070036 17 360 3.2 6.4 0.00 0.00 0.00 61 1013.7
20260510064540 17 355 0.0 3.2 0.00 0.03 0.00 61 1013.5
20260510063028 17 360 3.2 4.8 0.00 0.03 0.00 59 1013.7
20260510061556 17 360 3.2 8.0 0.00 0.03 0.00 59 1013.6
20260510060012 17 360 3.2 8.0 0.00 0.03 0.00 62 1013.7
20260510054526 17 360 1.6 4.8 0.00 0.03 0.00 66 1013.6
20260510053103 16 360 3.2 6.4 0.00 0.03 0.00 69 1013.4
20260510051508 17 360 1.6 3.2 0.00 0.03 0.00 76 1013.1
20260510050107 17 174 0.0 3.2 0.00 0.03 0.00 74 1012.7
20260510044602 17 360 0.0 1.6 0.00 0.03 0.03 73 1012.5
20260510043001 18 360 0.0 1.6 0.00 0.03 0.03 69 1012.3
20260510041519 18 360 0.0 4.8 0.00 0.03 0.03 68 1012.2
20260510040046 18 360 3.2 4.8 0.00 0.03 0.03 64 1011.9
20260510034532 18 92 1.6 4.8 0.00 0.03 0.03 65 1011.4
20260510033042 18 360 0.0 3.2 0.00 0.03 0.03 66 1011.1
20260510031536 19 360 0.0 3.2 0.00 0.03 0.03 62 1011.4
20260510030002 19 360 1.6 6.4 0.00 0.03 0.03 56 1011.1
20260510024552 20 355 1.6 4.8 0.00 0.03 0.03 56 1010.6
20260510023013 20 360 3.2 8.0 0.00 0.03 0.03 55 1010.3
20260510021529 20 360 1.6 6.4 0.00 0.03 0.03 53 1010.0
20260510020005 21 360 4.8 9.7 0.00 0.03 0.03 52 1009.9
20260510014529 21 360 0.0 3.2 0.00 0.03 0.03 51 1009.4
20260510013020 22 360 1.6 8.0 0.00 0.03 0.03 49 1009.2
20260510011515 22 360 8.0 16.1 0.00 0.03 0.03 48 1008.9
20260510010034 23 360 8.0 14.5 0.00 0.03 0.03 47 1008.8
20260510004523 23 360 9.7 22.5 0.00 0.03 0.03 47 1008.4
20260510003003 25 360 1.6 4.8 0.00 0.03 0.03 61 1007.9
20260510001600 25 360 0.0 0.0 0.00 0.03 0.03 59 1007.6
20260510000046 25 360 0.0 0.0 0.00 0.03 0.03 54 1007.5
20260509234507 26 360 0.0 1.6 0.00 0.03 0.03 55 1007.5
20260509233013 26 360 0.0 3.2 0.00 0.03 0.03 56 1007.4
20260509231629 26 360 0.0 3.2 0.00 0.03 0.03 56 1007.4
20260509230011 27 360 0.0 3.2 0.00 0.03 0.03 50 1007.5
20260509224538 27 360 0.0 3.2 0.00 0.03 0.03 47 1007.5
20260509223111 27 360 0.0 3.2 0.00 0.03 0.03 44 1007.3
20260509221540 27 360 0.0 3.2 0.00 0.03 0.03 47 1007.3
20260509220043 27 360 0.0 4.8 0.00 0.03 0.03 44 1007.3
20260509214541 28 360 0.0 6.4 0.00 0.03 0.03 42 1007.4
20260509213057 28 360 1.6 9.7 0.00 0.03 0.03 38 1007.4
20260509211550 28 360 1.6 8.0 0.00 0.03 0.03 40 1007.4